STARLINK-36042

Last updated on Mon Dec 15 2025 00:02:11 GMT+0000 (Coordinated Universal Time)

1 66813U 25278Y 25348.25003472 -.01354049 00000+0 -71055-2 0 9990 2 66813 42.9974 242.7102 0001775 279.2880 144.8472 15.82721098 3203
UTC large
Height (km)
Speed (km/s)
/
Latitude / Longitude
Inclination (degrees)
Orbital Period (minutes)
Azimuth
Elevation
Range (km)
Doppler Factor

Next 0 passes for location: London (51.5072 / 0.1276)

Sorry there are no passes over London.